• In Uzbekistan
  • List of Countries
  • For 7 days
  • Water Temperature
  • Satellite Maps
  • Weather Map
  • Weather Widgets
  • user-avatar
    Login

    Hourly Weather Sagaleipie

    Today, 13 November, Tuesday

    Time Temperature Precipitation Wind Pressure Humidity
    00:00 +21°C° 0.1 mm 0 mps 722 mmHg 98%
    01:00 +21°C° 0.1 mm 0 mps 722 mmHg 98%
    02:00 +21°C° 0.1 mm 0 mps 722 mmHg 98%
    03:00 +21°C° 0.4 mm 0 mps 722 mmHg 99%
    04:00 +21°C° 0.4 mm 0 mps 722 mmHg 99%
    05:00 +21°C° 0.4 mm 0 mps 722 mmHg 99%
    06:00 +22°C° 0 mm 0 mps 722 mmHg 95%
    07:00 +23°C° 0 mm 0 mps 723 mmHg 90%
    08:00 +27°C° 0 mm 1 mps 723 mmHg 86%
    09:00 +28°C° 0.3 mm 1 mps 723 mmHg 79%
    10:00 +30°C° 0.3 mm 1 mps 723 mmHg 71%
    11:00 +32°C° 0.3 mm 1 mps 722 mmHg 64%
    12:00 +32°C° 1 mm 1 mps 722 mmHg 64%
    13:00 +30°C° 1 mm 0 mps 721 mmHg 64%
    14:00 +30°C° 1 mm 0 mps 720 mmHg 63%
    15:00 +28°C° 1.2 mm 0 mps 721 mmHg 72%
    16:00 +28°C° 1.2 mm 1 mps 721 mmHg 81%
    17:00 +26°C° 1.2 mm 1 mps 721 mmHg 91%
    18:00 +25°C° 0.8 mm 1 mps 721 mmHg 92%
    19:00 +25°C° 0.8 mm 1 mps 722 mmHg 94%
    20:00 +24°C° 0.8 mm 1 mps 723 mmHg 96%
    21:00 +24°C° 0.2 mm 1 mps 723 mmHg 97%
    22:00 +24°C° 0.2 mm 1 mps 723 mmHg 97%
    23:00 +22°C° 0.2 mm 0 mps 723 mmHg 98%

    Tomorrow, 14 November, Wednesday

    Time Temperature Precipitation Wind Pressure Humidity
    00:00 +21°C° 0.3 mm 0 mps 722 mmHg 98%
    01:00 +21°C° 0.3 mm 0 mps 722 mmHg 98%
    02:00 +21°C° 0.3 mm 0 mps 721 mmHg 99%
    03:00 +21°C° 0 mm 0 mps 721 mmHg 99%
    04:00 +21°C° 0 mm 0 mps 721 mmHg 99%
    05:00 +21°C° 0 mm 0 mps 721 mmHg 99%
    06:00 +22°C° 0 mm 0 mps 722 mmHg 95%
    07:00 +23°C° 0 mm 0 mps 722 mmHg 91%
    08:00 +25°C° 0 mm 0 mps 723 mmHg 87%
    09:00 +27°C° 0.1 mm 0 mps 723 mmHg 76%
    10:00 +29°C° 0.1 mm 0 mps 722 mmHg 66%
    11:00 +34°C° 0.1 mm 1 mps 722 mmHg 55%
    12:00 +34°C° 0 mm 1 mps 722 mmHg 52%
    13:00 +34°C° 0 mm 1 mps 721 mmHg 50%
    14:00 +33°C° 0 mm 0 mps 720 mmHg 47%
    15:00 +32°C° 0.3 mm 1 mps 720 mmHg 57%
    16:00 +30°C° 0.3 mm 1 mps 721 mmHg 66%
    17:00 +28°C° 0.3 mm 1 mps 721 mmHg 75%
    18:00 +27°C° 1.6 mm 1 mps 721 mmHg 82%
    19:00 +26°C° 1.6 mm 1 mps 722 mmHg 89%
    20:00 +24°C° 1.6 mm 1 mps 723 mmHg 95%
    21:00 +24°C° 0.2 mm 1 mps 723 mmHg 96%
    22:00 +24°C° 0.2 mm 1 mps 723 mmHg 97%
    23:00 +24°C° 0.2 mm 1 mps 723 mmHg 98%

    Day after tomorrow, 15 November, Thursday

    Time Temperature Precipitation Wind Pressure Humidity
    00:00 +24°C° 0.1 mm 1 mps 722 mmHg 98%
    01:00 +22°C° 0.1 mm 0 mps 722 mmHg 98%
    02:00 +21°C° 0.1 mm 0 mps 722 mmHg 99%
    03:00 +21°C° 0 mm 0 mps 722 mmHg 99%
    04:00 +21°C° 0 mm 0 mps 722 mmHg 99%
    05:00 +21°C° 0 mm 0 mps 722 mmHg 99%
    06:00 +22°C° 0.2 mm 0 mps 722 mmHg 95%
    07:00 +26°C° 0.2 mm 1 mps 723 mmHg 91%
    08:00 +27°C° 0.2 mm 1 mps 723 mmHg 86%
    09:00 +29°C° 0.9 mm 1 mps 723 mmHg 80%
    10:00 +30°C° 0.9 mm 1 mps 723 mmHg 73%
    11:00 +32°C° 0.9 mm 1 mps 723 mmHg 66%
    12:00 +32°C° 0.6 mm 1 mps 722 mmHg 65%
    13:00 +32°C° 0.6 mm 1 mps 721 mmHg 64%
    14:00 +32°C° 0.6 mm 1 mps 720 mmHg 63%
    15:00 +30°C° 1 mm 1 mps 720 mmHg 72%
    16:00 +28°C° 1 mm 1 mps 721 mmHg 81%
    17:00 +26°C° 1 mm 1 mps 721 mmHg 91%
    18:00 +26°C° 1 mm 1 mps 721 mmHg 92%
    19:00 +25°C° 1 mm 1 mps 722 mmHg 93%
    20:00 +25°C° 1 mm 1 mps 723 mmHg 95%
    21:00 +24°C° 0.6 mm 1 mps 723 mmHg 95%
    22:00 +22°C° 0.6 mm 0 mps 723 mmHg 96%
    23:00 +22°C° 0.6 mm 0 mps 723 mmHg 97%

    16 November, Friday

    Time Temperature Precipitation Wind Pressure Humidity
    00:00 +22°C° 0.2 mm 0 mps 723 mmHg 97%
    01:00 +22°C° 0.2 mm 0 mps 722 mmHg 98%
    02:00 +21°C° 0.2 mm 0 mps 722 mmHg 98%
    03:00 +21°C° 0 mm 0 mps 722 mmHg 98%
    04:00 +21°C° 0 mm 0 mps 722 mmHg 98%
    05:00 +21°C° 0 mm 0 mps 722 mmHg 98%
    06:00 +22°C° 0 mm 0 mps 723 mmHg 94%
    07:00 +24°C° 0 mm 0 mps 723 mmHg 90%
    08:00 +25°C° 0 mm 0 mps 724 mmHg 86%
    09:00 +28°C° 0.1 mm 0 mps 724 mmHg 75%
    10:00 +30°C° 0.1 mm 0 mps 724 mmHg 64%
    11:00 +33°C° 0.1 mm 0 mps 723 mmHg 53%
    12:00 +33°C° 0 mm 0 mps 723 mmHg 51%
    13:00 +32°C° 0 mm 0 mps 722 mmHg 50%
    14:00 +32°C° 0 mm 0 mps 721 mmHg 49%
    15:00 +31°C° 0.1 mm 0 mps 721 mmHg 57%
    16:00 +29°C° 0.1 mm 0 mps 721 mmHg 65%
    17:00 +29°C° 0.1 mm 1 mps 721 mmHg 73%
    18:00 +28°C° 0.6 mm 1 mps 722 mmHg 79%
    19:00 +27°C° 0.6 mm 1 mps 722 mmHg 85%
    20:00 +25°C° 0.6 mm 1 mps 723 mmHg 91%
    21:00 +25°C° 0.2 mm 1 mps 723 mmHg 93%
    22:00 +25°C° 0.2 mm 1 mps 723 mmHg 96%
    23:00 +24°C° 0.2 mm 1 mps 723 mmHg 98%

    17 November, Saturday

    Time Temperature Precipitation Wind Pressure Humidity
    00:00 +24°C° 0 mm 1 mps 722 mmHg 98%
    01:00 +24°C° 0 mm 1 mps 722 mmHg 98%
    02:00 +22°C° 0 mm 0 mps 722 mmHg 99%
    03:00 +22°C° 0 mm 0 mps 722 mmHg 99%
    04:00 +22°C° 0 mm 0 mps 722 mmHg 99%
    05:00 +22°C° 0 mm 0 mps 723 mmHg 99%
    06:00 +22°C° 0 mm 0 mps 723 mmHg 96%
    07:00 +25°C° 0 mm 1 mps 724 mmHg 94%
    08:00 +26°C° 0 mm 1 mps 724 mmHg 92%
    09:00 +27°C° 0 mm 1 mps 724 mmHg 84%
    10:00 +29°C° 0 mm 1 mps 723 mmHg 76%
    11:00 +31°C° 0 mm 1 mps 723 mmHg 69%
    12:00 +31°C° 0.1 mm 1 mps 722 mmHg 65%
    13:00 +32°C° 0.1 mm 1 mps 722 mmHg 61%
    14:00 +31°C° 0.1 mm 0 mps 721 mmHg 58%
    15:00 +31°C° 0.6 mm 1 mps 721 mmHg 68%
    16:00 +29°C° 0.6 mm 1 mps 721 mmHg 78%
    17:00 +27°C° 0.6 mm 1 mps 722 mmHg 89%
    18:00 +26°C° 1.1 mm 1 mps 722 mmHg 91%
    19:00 +25°C° 1.1 mm 1 mps 723 mmHg 94%
    20:00 +25°C° 1.1 mm 1 mps 723 mmHg 96%
    21:00 +24°C° 0.1 mm 1 mps 723 mmHg 97%
    22:00 +24°C° 0.1 mm 1 mps 723 mmHg 97%
    23:00 +24°C° 0.1 mm 1 mps 723 mmHg 98%

    18 November, Sunday

    Time Temperature Precipitation Wind Pressure Humidity
    00:00 +24°C° 0 mm 1 mps 722 mmHg 98%
    01:00 +22°C° 0 mm 0 mps 722 mmHg 99%
    02:00 +21°C° 0 mm 0 mps 721 mmHg 99%
    03:00 +21°C° 0.1 mm 0 mps 722 mmHg 99%
    04:00 +21°C° 0.1 mm 0 mps 722 mmHg 99%
    05:00 +21°C° 0.1 mm 0 mps 722 mmHg 99%
    06:00 +22°C° 0.2 mm 0 mps 723 mmHg 98%
    07:00 +24°C° 0.2 mm 1 mps 723 mmHg 96%
    08:00 +25°C° 0.2 mm 1 mps 724 mmHg 95%
    09:00 +26°C° 0.8 mm 1 mps 723 mmHg 88%
    10:00 +28°C° 0.8 mm 1 mps 723 mmHg 82%
    11:00 +29°C° 0.8 mm 1 mps 723 mmHg 76%
    12:00 +30°C° 1.2 mm 1 mps 722 mmHg 74%
    13:00 +31°C° 1.2 mm 1 mps 721 mmHg 71%
    14:00 +31°C° 1.2 mm 1 mps 721 mmHg 69%
    15:00 +29°C° 1.4 mm 1 mps 721 mmHg 77%
    16:00 +28°C° 1.4 mm 1 mps 721 mmHg 85%
    17:00 +26°C° 1.4 mm 1 mps 721 mmHg 92%
    18:00 +25°C° 0.8 mm 1 mps 722 mmHg 94%
    19:00 +25°C° 0.8 mm 1 mps 722 mmHg 95%
    20:00 +24°C° 0.8 mm 1 mps 723 mmHg 96%
    21:00 +24°C° 0.2 mm 1 mps 723 mmHg 97%
    22:00 +24°C° 0.2 mm 1 mps 723 mmHg 97%
    23:00 +22°C° 0.2 mm 0 mps 722 mmHg 98%
    Show more